Tracking 31027 objects as of 19-Jul-2025
HD Live streaming from Space Station
objects crossing your sky now

GEOTAIL

Track GEOTAIL now!
GEOTAIL is classified as:


NORAD ID: 22049
Int'l Code: 1992-044A
Perigee: 47,311.7 km
Apogee: 194,414.1 km
Inclination: 45.5 °
Period: 7,527.7 minutes
Semi major axis: 127233 km
RCS: 3.5 m2 (large)
Launch date: July 24, 1992
Source: Japan (JPN)
Launch site: AIR FORCE EASTERN TEST RANGE (AFETR)

Study the dynamics of the Earth's magnetotail over a wide range of distance
Your satellite tracking list
THORAD DELTA 1 DEB
Track 1 satellite(s)




NASA's NSSDC Master Catalog

Two Line Element Set (TLE):
1 22049U 92044A   25199.76814799 -.00001578  00000-0  00000-0 0  9995
2 22049  45.4510   3.1501 5780786 261.0197   1.3533  0.19129281 15122
Source of the keplerian elements: AFSPC